Regional Weather Roundup
Issued by NWS Cleveland, OH

Home | Current Version | Previous Version | Graphics & Text | Print | Product List | Glossary On
Versions: 1 2 3 4 5 6 7 8 9 10 11 12 13 14 15 16 17 18 19 20 21 22 23 24 25 26 27 28 29 30 31 32 33 34 35 36 37 38 39 40 41 42 43 44 45 46 47 48 49 50
000
ASUS41 KCLE 182212
RWRCLE
OHIO REGIONAL WEATHER ROUNDUP
NATIONAL WEATHER SERVICE WILMINGTON, OH
500 PM EST THU JAN 18 2018

NOTE: "FAIR" INDICATES FEW OR NO CLOUDS BELOW 12,000 FEET WITH NO
SIGNIFICANT WEATHER AND/OR OBSTRUCTIONS TO VISIBILITY.

OHZ001>008-015>018-024>027-034-035-043-044-182300-
   NORTHWEST OHIO

CITY           SKY/WX    TMP DP  RH WIND       PRES   REMARKS
DEFIANCE       FAIR      25  15  66 SW16G24   30.08F WCI  12
FINDLAY        FAIR      25  14  63 SW15      30.10S WCI  13
TOLEDO EXPRESS FAIR      26  17  68 SW16G25   30.05F WCI  14
TOLEDO EXEC    FAIR      25  16  68 SW16      30.07F WCI  12
LIMA           FAIR      26  15  63 SW14      30.11F WCI  14
$$

OHZ009>014-019>023-028>033-038-089-182300-
   NORTHEAST OHIO

CITY           SKY/WX    TMP DP  RH WIND       PRES   REMARKS
CLE-HOPKINS    FAIR      28  13  53 SW21G28   30.10S WCI  15
CLE-LAKEFRONT  FAIR      29  13  51 SW16      30.07S WCI  17
CUY CO. ARPT   PTCLDY    30  14  51 SW15G25   30.07R WCI  19
LORAIN-ELYRIA  FAIR      24  10  55 SW17      30.08S WCI  11
ASHTABULA      FAIR      26  11  52 SW13      30.05S WCI  15
AKRON-CANTON   FAIR      25  12  58 SW15      30.09F WCI  13
WOOSTER        FAIR      24  12  60 SW15G25   30.10F WCI  11
MANSFIELD      FAIR      24  12  60 S21       30.10S WCI   9
YOUNGSTOWN     FAIR      26  11  52 SW13      30.06F WCI  15
$$

OHZ042-051>053-060>062-070>072-077>081-182300-
  SOUTHWEST OHIO

CITY           SKY/WX    TMP DP  RH WIND       PRES   REMARKS
CINC-COVINGTON FAIR      30  15  53 SW8       30.23R WCI  22
CINC-LUNKEN    FAIR      30  15  53 SW13      30.27R WCI  20
HAMILTON       FAIR      32  14  47 SW10G17   30.24R WCI  24
DAYTON         FAIR      29  15  56 SW16      30.17F WCI  17
WRIGHT-PAT AFB FAIR      29   8  39 SW17      30.18F WCI  18
DAYTON GENERAL FAIR      31  13  47 SW13      30.19R WCI  21
WILMINGTON     FAIR      26  15  63 SW16      30.19R WCI  14
$$

OHZ036-037-039>041-045>050-054>059-063>069-073>076-082>088-182300-
  CENTRAL AND SOUTHEAST OHIO

CITY           SKY/WX    TMP DP  RH WIND       PRES   REMARKS
COLUMBUS       FAIR      28  13  53 SW13      30.20F WCI  17
OSU AIRPORT    FAIR      26  14  60 S13       30.18F WCI  15
BOLTON FIELD   CLEAR     27  14  59 SW14      30.20S WCI  15
RICKENBACK AFB FAIR      26  13  57 SW13      30.21F WCI  15
NEWARK         FAIR      27  11  51 S8        30.18F WCI  19
MARION         FAIR      23  13  65 S13       30.14F WCI  11
LANCASTER      FAIR      28  11  48 SW9       30.21R WCI  19
ZANESVILLE     FAIR      29  10  45 SW7       30.19S WCI  22
NEW PHILLY     FAIR      28  11  48 SW9G17    30.16F WCI  19
$$




USA.gov is the U.S. government's official web portal to all federal, state and local government web resources and services.